Location: Doschendorf
(50.0069°N, 11.0602°E)
Time: 16:56:55
(UTC+00:00)

Cosmos 1656 - Pass Details

Date: 17 November 2019
Orbit: 800 x 847 km, 71.1° (Epoch: 11 December)

Event Time Altitude Azimuth Distance (km) Brightness Sun altitude
Rises 17:21:27 0° 214° (SW) 3,349 7.5 -17.7°
Reaches altitude 10° 17:23:54 10° 217° (SW) 2,413 6.7 -18.1°
Maximum altitude 17:29:24 70° 301° (WNW) 867 3.9 -19.0°
Enters shadow 17:34:03 15° 24° (NNE) 2,091 5.5 -19.8°
